Flag for Germany Weather past 2 weeks in Heidelberg, Baden-Württemberg, Germany

Now
50 °F

Clear.


Feels Like: 47 °F
Forecast: 37 / 56 °F
Wind: 7 mph from West

Location: Baden Wurttemberg - Neuostheim

Current Time: Mar 27, 2015 at 8:22:44 PM

Latest Report: Mar 27, 2015 at 7:50 PM


Visibility: 10 mi

Pressure: 30.18 "Hg

Humidity: 47%

Dew point: 30 °F

Location of HeidelbergLocation

Historic Weather in Heidelberg — Graph

°F

Heidelberg temperature yesterday

Maximum temperature yesterday: 50 °F (at 1:20 PM)
Minimum temperature yesterday: 43 °F (at 7:50 PM)
Average temperature yesterday: 47 °F

Past Weeks' High & Low Weather Summary

 TemperatureHumidityPressure
High64 °F (Mar 17, 3:50 PM)100% (Mar 21, 9:20 AM)30.33 "Hg (Mar 21, 9:20 AM)
Low30 °F (Mar 24, 5:20 AM)34% (Mar 20, 3:50 PM)29.59 "Hg (Mar 25, 2:50 PM)
Average48 °F63%30.08 "Hg
* Reported Mar 12 6:20 PM — Mar 27 6:50 PM, Heidelberg, Weather by CustomWeather, © 2015

Note: Actual official high and low records may vary slightly from our data, if they occured in-between our weather recording intervals... More about our weather records

Advertising

Heidelberg weather history for previous 24 hours

 ConditionsComfort  
Time TempWeatherWind HumidityBarometerVisibility
6:50 PM
Fri, Mar 27
52 °FClear.10 mph41%30.15 "Hg10 mi
6:20 PM52 °FSunny.10 mph41%30.15 "Hg10 mi
5:50 PM52 °FScattered clouds.14 mph38%30.15 "HgN/A
5:20 PM52 °FPartly sunny.14 mph41%30.15 "HgN/A
4:50 PM54 °FPartly sunny.14 mph38%30.12 "HgN/A
4:20 PM52 °FBroken clouds.14 mph41%30.12 "HgN/A
3:50 PM52 °FBroken clouds.10 mph41%30.09 "HgN/A
3:20 PM54 °FPassing clouds.15 mph41%30.09 "HgN/A
2:50 PM52 °FScattered clouds.17 mph44%30.09 "HgN/A
2:20 PM54 °FPartly sunny.16 mph41%30.09 "HgN/A
1:50 PM54 °FScattered showers. Broken clouds.16 mph44%30.09 "HgN/A
1:20 PM52 °FPartly sunny.15 mph50%30.09 "HgN/A
12:50 PM52 °FPassing clouds.12 mph44%30.07 "HgN/A
12:20 PM52 °FPartly sunny.14 mph47%30.07 "HgN/A
11:50 AM50 °FScattered clouds.13 mph50%30.07 "HgN/A
11:20 AM50 °FPassing clouds.10 mph47%30.07 "HgN/A
10:50 AM50 °FPassing clouds.12 mph50%30.07 "HgN/A
10:20 AM48 °FBroken clouds.14 mph58%30.07 "HgN/A
9:50 AM46 °FPartly sunny.13 mph66%30.07 "HgN/A
9:20 AM48 °FScattered clouds.14 mph62%30.07 "HgN/A
8:50 AM46 °FPassing clouds.9 mph71%30.04 "HgN/A
8:20 AM46 °FPassing clouds.10 mph66%30.04 "HgN/A
7:50 AM45 °FSunny.9 mph76%30.01 "Hg10 mi
7:20 AM43 °FPassing clouds.5 mph81%30.01 "HgN/A
6:50 AM41 °FSunny.3 mph87%29.98 "Hg10 mi
6:20 AM43 °FSunny.7 mph81%29.98 "Hg10 mi
5:50 AM43 °FPassing clouds.6 mph87%29.95 "HgN/A
5:20 AM43 °FPassing clouds.2 mph87%29.95 "HgN/A
8:50 PM
Thu, Mar 26
43 °FLight rain. Passing clouds.5 mph87%29.86 "HgN/A
8:20 PM43 °FLight rain. Passing clouds.2 mph87%29.86 "Hg6 mi
Weather by CustomWeather, © 2015

See weather overviewHow to use our weather pages